Zurück zum Katalog

COSMOS 249 DEB

AktivLEO
NORAD 3695·DEBRIS·🇷🇺 Russia

Gestartet Oct 20, 1968 von Baikonur Cosmodrome

Loading…

Nächste Überflüge (nächste 24 Stunden)

TLE

AktuellSource: Space-Track

Epoche: Sep 14, 2026, 08:13 UTC

1 03695U 68091AL  26257.34243507  .00001529  00000-0  17742-2 0  9997
2 03695  62.2434  25.5397 0637383 256.8366  96.0802 13.07557789683850

Verfolge COSMOS 249 DEB in Echtzeit mit AllMySat

Download on the App Store